Location: Berg
(47.2344°N, 9.5296°E)
Time: 22:15:36
(UTC+00:00)

CSL-04 Debris - Pass Details

Date: 24 January 2021
Orbit: 827 x 847 km, 98.9° (Epoch: 03 March)

Event Time Altitude Azimuth Distance (km) Brightness Sun altitude
Rises 18:17:20 0° 163° (SSE) 3,358 7.2 -21.1°
Reaches altitude 10° 18:19:40 10° 163° (SSE) 2,427 6.5 -21.5°
Maximum altitude 18:25:03 89° 77° (ENE) 835 4.1 -22.4°
Drops below altitude 10° 18:30:29 10° 345° (NNW) 2,443 6.7 -23.3°
Sets 18:32:50 0° 346° (NNW) 3,381 7.5 -23.7°
